Погода в Кривце

Россия / Липецкая область     52°52′25″N   40°02′51″E
темп.,
°C
ветер,
м/с
пор.,
м/с
влажн.,
%
обл.,
%
осадки,
мм/ч
давл.,
гПа
погр.,
м
15 апреля, чт
чт1500:00+13вюв395491 0.0 1016156
03:00+11вюв366199 0.0 1016109
06:00+10вюв3468100 0.0 101571
09:00+15юв465296 0.0 1015383
12:00+18юв3541100 0.0 10141054
15:00+20ю4939100 0.0 10142136
18:00+16ююз5757100 0.1 1014674
21:00+13ююв41076100 0.6 1016604
16 апреля, пт
пт1600:00+13вюв227295 0.3 101529
03:00+11вюв3482100 0.3 101664
06:00+10в3386100 0.0 101658
09:00+14юв3466100 0.0 1017448
12:00+17юв354778 0.0 10171321
15:00+18юв4642100 0.0 10172040
18:00+15всв356179 0.8 1017185
21:00+13вюв116244 0.8 101710
17 апреля, сб
сб1700:00+12в2273100 0.0 101829
03:00+10всв3485100 0.0 101872
06:00+10св3690100 0.2 1017171
09:00+12в4575100 0.8 1018569
12:00+15вюв6959100 0.5 10161514
15:00+11юв5985100 5.1 1017734
18:00+9юз2284100 0.9 1018413
21:00+9ююв3386100 1.0 1019378
18 апреля, вс
вс1800:00+8ю2390100 1.1 1019349
03:00+7ю2392100 1.8 1019267
06:00+7ю4693100 0.6 1019446
09:00+9юз257591 1.1 1020644
12:00+12вюв2259100 0.6 10201099
15:00+12вюв4459100 1.6 10201520
18:00+11св467197 0.7 1020708
21:00+9всв61181100 1.6 1021660
19 апреля, пн
пн1900:00+8всв4888100 1.9 1021463
03:00+7св5891100 4.1 1021371
06:00+6св5993100 1.9 1021693
09:00+8св478293 6.1 1022553
12:00+10св5774100 0.1 10221153
15:00+7всв7984100 0.2 10231011
18:00+6всв61189100 0.0 1024854
21:00+5всв5118721 0.0 1024568